Preston, Minnesota, United States (55965)
Lat: 43.67N, Lon: 92.08W
Wx Zone: MNZ095
Local Info
Past Weather Observations for Today

NOTE: This archive is for the closest National Weather Service station to Preston. Information may differ from the station used for current weather conditions.

Click here for Long-term Archive

Time Weather Temperature Dewpoint Humidity Pressure Winds Precip Visibility
08:54
Overcast
Fog And Mist
52°F / 11°C 48°F / 9°C 88% 30.06 in
(1018 mb)
N 13.8 mph
(N 22 kph)
- 5SM
08:34
Overcast
Fog And Mist
50°F / 10°C 48°F / 9°C 94% 30.04 in
(1017 mb)
NNW 13.8 mph
(NNW 22 kph)
- 4SM
08:14
Overcast
Fog And Mist
50°F / 10°C 48°F / 9°C 94% 30.04 in
(1017 mb)
NNW 10.4 mph
(NNW 17 kph)
- 3SM
07:54
Overcast
50°F / 10°C 48°F / 9°C 94% 30.04 in
(1017 mb)
NNW 12.7 mph
(NNW 20 kph)
- 7SM
07:34
Overcast
Fog And Mist
48°F / 9°C 46°F / 8°C 94% 30.01 in
(1016 mb)
NNW 13.8 mph
(NNW 22 kph)
- 5SM
07:14
Overcast
Fog And Mist
48°F / 9°C 46°F / 8°C 94% 30.01 in
(1016 mb)
NNW 13.8 mph
(NNW 22 kph)
- 2 1/2SM
06:54
Overcast
Fog And Mist
48°F / 9°C 46°F / 8°C 94% 30.01 in
(1016 mb)
NNW 12.7 mph
(NNW 20 kph)
- 3SM
06:33
Overcast
48°F / 9°C 46°F / 8°C 94% 30.01 in
(1016 mb)
NNW 11.5 mph
(NNW 19 kph)
- 10SM
06:14
Overcast
48°F / 9°C 45°F / 7°C 87% 30.01 in
(1016 mb)
NNW 11.5 mph
(NNW 19 kph)
- 7SM
05:54
Overcast
48°F / 9°C 45°F / 7°C 87% 29.98 in
(1015 mb)
NNW 15 mph
(NNW 24 kph)
- 10SM
05:33
Overcast
48°F / 9°C 45°F / 7°C 87% 29.98 in
(1015 mb)
N 13.8 mph
(N 22 kph)
- 10SM
05:14
Overcast
48°F / 9°C 45°F / 7°C 87% 29.98 in
(1015 mb)
NNW 8.1 mph
(NNW 13 kph)
- 10SM
04:54
Overcast
48°F / 9°C 45°F / 7°C 87% 29.95 in
(1014 mb)
NNW 11.5 mph
(NNW 19 kph)
- 10SM
04:34
Overcast
48°F / 9°C 45°F / 7°C 87% 29.95 in
(1014 mb)
NNW 8.1 mph
(NNW 13 kph)
- 10SM
04:14
Overcast
46°F / 8°C 45°F / 7°C 93% 29.95 in
(1014 mb)
NNW 12.7 mph
(NNW 20 kph)
- 10SM
03:54
Overcast
46°F / 8°C 45°F / 7°C 93% 29.95 in
(1014 mb)
NNW 10.4 mph
(NNW 17 kph)
- 7SM
03:34
Overcast
46°F / 8°C 45°F / 7°C 93% 29.95 in
(1014 mb)
N 10.4 mph
(N 17 kph)
- 7SM
03:14
Overcast
46°F / 8°C 45°F / 7°C 93% 29.92 in
(1013 mb)
N 9.2 mph
(N 15 kph)
- 10SM
02:54
Overcast
Fog And Mist
46°F / 8°C 45°F / 7°C 93% 29.92 in
(1013 mb)
NNW 8.1 mph
(NNW 13 kph)
- 5SM
02:34
Overcast
46°F / 8°C 45°F / 7°C 93% 29.92 in
(1013 mb)
N 11.5 mph
(N 19 kph)
- 7SM
02:14
Overcast
46°F / 8°C 45°F / 7°C 93% 29.92 in
(1013 mb)
N 10.4 mph
(N 17 kph)
- 7SM
01:54
Overcast
46°F / 8°C 45°F / 7°C 93% 29.92 in
(1013 mb)
N 13.8 mph
(N 22 kph)
- 10SM
01:34
Overcast
46°F / 8°C 43°F / 6°C 87% 29.89 in
(1012 mb)
N 9.2 mph
(N 15 kph)
- 10SM
01:13
Overcast
46°F / 8°C 45°F / 7°C 93% 29.89 in
(1012 mb)
N 10.4 mph
(N 17 kph)
- 10SM
00:54
Overcast
46°F / 8°C 43°F / 6°C 87% 29.89 in
(1012 mb)
N 11.5 mph
(N 19 kph)
- 10SM
00:34
Overcast
46°F / 8°C 43°F / 6°C 87% 29.89 in
(1012 mb)
N 9.2 mph
(N 15 kph)
- 10SM
00:14
Overcast
46°F / 8°C 43°F / 6°C 87% 29.89 in
(1012 mb)
N 9.2 mph
(N 15 kph)
- 10SM
Time Weather Temperature Dewpoint Humidity Pressure Winds Precip Visibility


Weather for websites

WeatherForYou.com, LLC is not responsible for any damages or problems caused by this service. Current weather conditions are obtained from the closest station including government and personal stations which may have varying degrees of accuracy. Weather forecasts are derived from the NOAA NDFD. Like all things, this site belongs to Jesus Christ... He just trusts us to maintain it. If you have any questions or comments email webmaster@weatherforyou.com

Copyright © 2016, WeatherForYou.com LLC. All rights reserved.